Вернуться в каталог

SL-12 DEB

АктивенHEO
NORAD 25809·DEBRIS·🇷🇺 Russia

Запущен Sep 16, 1987 с Baikonur Cosmodrome

Loading…

Ближайшие Пролёты (ближайшие 24 часа)

TLE

СвежийSource: Space-Track

Эпоха: Sep 11, 2026, 13:18 UTC

1 25809U 87079U   26254.55435514  .00007768  00000-0  26467-2 0  9991
2 25809  65.0467  66.9951 3998360  39.2631 343.8959  7.24693599139257

Отслеживайте SL-12 DEB в реальном времени с AllMySat

Download on the App Store